Probability
94 87 81 84 84 74 81 77 84 87 87 90 87 90 90 90 87 77 65 87 94 90 94 94 94 97 100 100 100 100 100 100 100 100 100 100 100 100 97 97 94 84 77
87 71 68 61 58 55 52 61 61 61 55 71 74 81 81 68 84 71 68 71 94 90 90 90 90 94 97 100 100 100 100 100 100 100 100 100 100 100 100 100 100 84 68
87 68 58 58 48 48 48 39 32 26 19 26 32 42 42 45 55 58 52 55 58 81 74 81 87 87 90 94 100 100 100 100 100 100 100 100 97 100 100 100 97 90 55
68 65 45 39 39 42 29 23 26 23 19 19 13 13 13 23 39 39 39 48 58 58 65 84 87 84 90 97 97 97 97 100 100 100 100 100 97 97 90 90 94 77 42
48 35 23 19 16 16 13 13 19 16 10 6 6 3 3 10 13 29 39 42 42 52 52 52 81 84 81 94 94 97 94 94 97 97 100 100 100 97 68 61 68 55 29
29 16 10 10 10 6 6 6 6 3 3 0 3 0 0 3 6 10 16 23 19 32 32 32 35 52 81 84 84 77 94 94 94 97 97 100 100 100 77 55 48 39 19
16 10 6 3 3 3 3 6 6 6 3 3 0 0 0 0 0 3 6 3 6 16 19 23 16 26 35 58 68 74 84 90 84 90 94 97 97 100 84 58 42 23 16
3 0 3 0 3 3 0 0 6 6 0 3 0 0 0 0 0 0 0 3 6 6 10 16 16 19 29 29 35 45 74 81 84 77 81 87 87 81 81 74 55 19 10
3 0 0 0 0 0 0 0 0 0 0 0 0 0 0 0 0 0 0 0 0 0 0 3 19 16 13 23 23 23 55 52 65 77 81 77 68 58 65 71 68 35 16
0 0 0 0 0 0 0 0 0 0 0 0 0 0 0 0 0 0 0 0 0 0 0 3 6 6 10 13 13 13 13 19 35 58 61 61 55 55 52 71 81 77 39
0 0 0 0 0 0 0 0 0 0 0 0 0 0 0 0 0 0 0 0 0 0 0 0 3 0 0 3 0 6 10 3 13 26 42 55 58 55 42 52 71 84 87
0 0 0 0 3 0 0 0 0 0 0 0 0 0 0 0 0 0 0 0 0 0 0 0 0 3 0 0 0 3 3 3 3 0 3 6 16 32 42 52 68 74 81
0 0 0 0 0 0 0 0 0 0 0 0 0 0 0 0 0 0 0 0 0 0 0 0 0 0 0 0 0 0 0 0 0 0 0 0 0 0 13 29 45 48 61
0 0 0 0 0 0 0 0 0 0 0 0 0 0 0 0 0 0 0 0 0 0 0 0 0 0 0 0 0 0 0 0 0 0 0 0 0 0 0 3 6 6 10
0 0 0 0 0 0 0 0 0 0 0 0 0 0 0 0 0 0 0 0 0 0 0 0 0 0 0 0 0 0 0 0 0 0 0 0 0 0 0 0 0 3 3
0 0 0 0 0 0 0 0 0 0 0 0 0 0 0 0 0 0 0 0 0 0 0 0 0 0 0 0 0 0 0 0 0 0 0 0 0 0 0 0 0 0 0
0 0 0 0 0 0 0 0 0 0 0 0 0 0 0 0 0 0 0 0 0 0 0 0 0 0 0 0 0 0 0 0 0 0 0 0 0 0 0 0 0 0 0
0 0 0 0 0 0 0 0 0 0 0 0 0 0 0 0 0 0 0 0 0 0 0 0 0 0 0 0 0 0 0 0 0 0 0 0 0 0 0 0 0 0 0
0 0 0 0 0 0 0 0 0 0 0 0 0 0 0 0 0 0 0 0 0 0 0 0 0 0 0 0 0 0 0 0 0 0 0 0 0 0 0 0 0 0 0
0 0 0 0 0 0 0 0 0 0 0 0 0 0 0 0 0 0 0 0 0 0 0 0 0 0 0 0 0 0 0 0 0 0 0 0 0 0 0 0 0 0 0
0 0 0 0 0 0 0 0 0 0 0 0 0 0 0 0 0 0 0 0 0 0 0 0 0 0 0 0 0 0 0 0 0 0 0 0 0 0 0 0 0 0 0
0 0 0 0 0 0 0 0 0 0 0 0 0 0 0 0 0 0 0 0 0 0 0 0 0 0 0 0 0 0 0 0 0 0 0 0 0 0 0 0 0 0 0
0 0 0 0 0 0 0 0 0 0 0 0 0 0 0 0 0 0 0 0 0 0 0 0 0 0 0 0 0 0 0 0 0 0 0 0 0 0 0 0 0 0 0
0 0 0 0 0 0 0 0 0 0 0 0 0 0 0 0 0 0 0 0 0 0 0 0 0 0 0 0 0 0 0 0 0 0 0 0 0 0 0 0 0 0 0
0 0 0 0 0 0 0 0 0 0 0 0 0 0 0 0 0 0 0 0 0 0 0 0 0 0 0 0 0 0 0 0 0 0 0 0 0 0 0 0 0 0 0
0 0 0 0 0 0 0 0 0 0 0 0 0 0 0 0 0 0 0 0 0 0 0 0 0 0 0 0 0 0 0 0 0 0 0 0 0 0 0 0 0 0 0
Height
5867 5866 5865 5864 5863 5862 5861 5861 5860 5859 5859 5858 5858 5857 5856 5855 5855 5854 5854 5854 5854 5854 5855 5857 5858 5859 5861 5862 5864 5865 5867 5868 5870 5871 5873 5874 5876 5878 5880 5881 5883 5885 5887
5861 5860 5859 5858 5857 5857 5856 5855 5854 5854 5853 5853 5853 5852 5851 5850 5849 5849 5848 5848 5848 5848 5847 5849 5850 5852 5854 5855 5857 5859 5861 5862 5864 5866 5868 5870 5871 5873 5875 5877 5879 5881 5883
5854 5853 5853 5852 5851 5850 5850 5850 5849 5848 5848 5848 5848 5847 5846 5846 5845 5844 5843 5842 5842 5841 5841 5842 5843 5845 5846 5848 5850 5852 5854 5856 5858 5860 5862 5865 5867 5869 5871 5873 5875 5877 5879
5847 5846 5846 5845 5844 5844 5844 5844 5843 5843 5843 5843 5843 5842 5841 5840 5840 5839 5838 5837 5836 5835 5835 5836 5837 5837 5838 5840 5842 5844 5847 5849 5851 5854 5856 5858 5861 5863 5865 5868 5870 5872 5874
5839 5839 5839 5839 5838 5838 5838 5838 5838 5838 5838 5838 5838 5837 5836 5835 5834 5833 5832 5831 5830 5830 5830 5830 5829 5830 5831 5832 5834 5836 5838 5841 5843 5846 5849 5852 5854 5857 5859 5862 5864 5867 5869
5833 5833 5833 5833 5833 5833 5833 5833 5833 5833 5833 5833 5833 5833 5832 5830 5829 5828 5826 5825 5824 5824 5823 5823 5823 5823 5824 5825 5826 5827 5830 5832 5835 5838 5841 5844 5847 5850 5853 5855 5858 5861 5863
5826 5826 5826 5826 5827 5827 5827 5827 5827 5827 5827 5828 5828 5828 5827 5826 5824 5823 5821 5820 5818 5817 5816 5816 5816 5817 5817 5818 5819 5819 5821 5824 5826 5829 5832 5835 5838 5842 5845 5848 5851 5854 5857
5819 5819 5819 5819 5820 5820 5821 5821 5821 5821 5821 5822 5822 5822 5822 5821 5819 5818 5816 5814 5813 5811 5810 5809 5809 5809 5810 5811 5811 5812 5813 5815 5818 5820 5823 5826 5830 5833 5837 5840 5844 5847 5850
5813 5812 5812 5812 5813 5813 5813 5814 5814 5815 5815 5815 5816 5816 5816 5815 5814 5812 5810 5809 5807 5805 5804 5803 5802 5802 5803 5803 5804 5805 5806 5807 5810 5812 5814 5817 5820 5824 5828 5832 5835 5838 5842
5806 5804 5804 5804 5804 5805 5806 5806 5807 5808 5808 5808 5809 5809 5810 5809 5809 5807 5804 5803 5801 5799 5797 5796 5795 5795 5795 5795 5796 5797 5798 5800 5802 5803 5805 5808 5811 5815 5819 5823 5826 5830 5833
5797 5797 5796 5796 5795 5796 5797 5798 5798 5799 5800 5801 5801 5801 5802 5802 5802 5802 5800 5796 5794 5792 5790 5788 5788 5787 5787 5788 5788 5789 5790 5792 5794 5796 5798 5801 5803 5806 5810 5814 5817 5821 5825
5787 5787 5787 5787 5787 5787 5788 5789 5789 5790 5791 5793 5793 5794 5794 5794 5793 5794 5793 5791 5788 5785 5784 5782 5780 5780 5780 5780 5780 5781 5783 5785 5786 5788 5791 5793 5796 5799 5802 5805 5809 5812 5816
5775 5776 5776 5777 5777 5778 5778 5779 5780 5781 5782 5783 5784 5785 5785 5785 5785 5785 5786 5784 5782 5779 5777 5775 5774 5773 5773 5773 5773 5774 5776 5778 5779 5781 5784 5786 5788 5791 5794 5797 5800 5804 5808
5762 5762 5763 5764 5765 5766 5767 5768 5769 5771 5771 5773 5774 5775 5776 5777 5777 5777 5777 5777 5776 5774 5771 5769 5767 5766 5766 5766 5767 5767 5769 5771 5773 5775 5777 5779 5782 5784 5787 5790 5793 5796 5799
5746 5746 5747 5748 5750 5752 5754 5756 5758 5759 5760 5762 5764 5765 5767 5767 5768 5769 5769 5769 5769 5768 5766 5763 5761 5760 5760 5760 5760 5761 5763 5764 5766 5768 5770 5773 5775 5777 5780 5783 5785 5788 5791
5727 5728 5730 5731 5733 5736 5738 5741 5744 5746 5748 5750 5752 5755 5757 5758 5759 5760 5761 5761 5761 5761 5759 5757 5755 5754 5753 5754 5754 5755 5757 5758 5760 5763 5765 5767 5769 5771 5773 5776 5778 5781 5784
5706 5708 5710 5712 5715 5718 5721 5724 5728 5731 5735 5738 5740 5743 5746 5748 5750 5751 5752 5753 5753 5753 5753 5751 5749 5748 5748 5748 5748 5749 5751 5753 5754 5756 5759 5761 5763 5765 5767 5769 5771 5774 5776
5684 5686 5688 5691 5694 5698 5702 5706 5710 5715 5719 5723 5727 5730 5734 5737 5739 5742 5743 5744 5745 5745 5745 5744 5743 5742 5742 5742 5743 5744 5745 5746 5748 5750 5753 5755 5757 5759 5761 5763 5765 5767 5770
5659 5662 5665 5669 5672 5677 5681 5686 5691 5697 5702 5708 5712 5717 5721 5725 5729 5731 5734 5735 5736 5737 5737 5737 5736 5736 5736 5736 5737 5738 5739 5741 5743 5745 5747 5749 5751 5753 5755 5757 5759 5761 5763
5634 5637 5641 5645 5649 5654 5659 5665 5671 5678 5684 5691 5697 5702 5708 5712 5717 5720 5724 5726 5728 5729 5730 5730 5730 5730 5730 5730 5731 5732 5733 5735 5737 5739 5741 5743 5745 5747 5749 5751 5753 5755 5757
5612 5615 5617 5621 5625 5631 5637 5643 5650 5658 5666 5673 5680 5687 5694 5699 5704 5709 5713 5716 5718 5720 5722 5723 5723 5724 5724 5725 5726 5726 5728 5729 5731 5733 5735 5737 5739 5741 5743 5745 5747 5749 5751
5597 5598 5599 5601 5604 5608 5613 5620 5628 5637 5646 5654 5663 5671 5679 5685 5691 5697 5702 5706 5709 5712 5714 5715 5716 5717 5718 5719 5720 5721 5722 5724 5725 5727 5729 5732 5734 5735 5737 5739 5741 5744 5745
5587 5587 5588 5588 5589 5591 5594 5599 5606 5615 5625 5635 5645 5654 5663 5671 5678 5684 5690 5695 5699 5702 5706 5708 5709 5711 5712 5713 5714 5715 5717 5718 5720 5722 5724 5726 5728 5730 5732 5734 5736 5738 5740
5577 5577 5577 5578 5578 5578 5580 5583 5587 5595 5604 5615 5626 5636 5647 5656 5665 5672 5679 5684 5689 5693 5697 5700 5702 5704 5706 5707 5709 5710 5711 5713 5715 5717 5719 5721 5723 5725 5727 5729 5731 5733 5735
5565 5566 5566 5567 5567 5568 5569 5571 5573 5579 5586 5596 5607 5619 5630 5641 5651 5660 5667 5674 5680 5684 5689 5692 5695 5697 5699 5701 5703 5704 5706 5708 5709 5711 5714 5716 5718 5720 5722 5724 5726 5728 5730
5553 5554 5555 5556 5556 5557 5558 5560 5562 5566 5572 5580 5591 5603 5615 5626 5637 5647 5656 5663 5670 5676 5680 5684 5688 5690 5693 5695 5697 5699 5701 5703 5705 5707 5709 5711 5713 5715 5717 5720 5722 5724 5727
Wind_Speed
25 25 24 24 23 23 24 24 24 23 22 21 21 21 21 22 23 23 24 25 27 28 27 27 26 24 23 23 23 23 22 21 20 19 17 16 16 17 17 17 16 15 14
25 25 25 24 23 23 22 22 22 21 20 20 20 20 20 21 22 22 23 23 24 26 26 27 28 28 27 26 26 25 26 25 24 23 21 20 19 18 18 18 18 17 16
25 25 25 24 23 22 21 21 20 19 17 17 17 17 17 18 19 20 20 21 23 24 25 27 28 29 29 29 28 28 28 29 28 27 26 24 23 21 20 20 20 19 18
25 24 24 24 23 22 21 20 19 18 17 16 15 15 15 16 16 17 18 20 21 22 24 25 27 29 29 30 31 30 30 30 31 31 30 29 27 25 24 23 22 22 21
24 23 24 23 22 21 20 20 19 18 17 16 15 14 14 15 15 16 17 19 20 21 23 26 26 28 29 30 32 32 32 31 32 33 33 33 32 30 28 26 25 24 23
25 24 24 23 22 21 21 21 20 19 18 17 16 16 16 15 16 16 17 19 20 21 23 25 27 27 30 31 31 32 34 33 33 34 35 35 35 34 32 30 29 27 26
24 24 24 23 23 22 21 21 21 20 19 18 18 17 17 16 16 17 18 19 20 21 23 25 26 26 29 31 32 32 34 36 36 34 35 37 38 37 36 34 33 31 30
25 25 24 24 24 23 22 22 21 21 21 20 19 18 18 19 18 19 19 19 20 22 23 24 26 27 29 31 32 33 33 34 36 35 35 37 39 39 38 37 36 34 33
26 25 25 25 25 24 24 23 23 22 22 22 21 20 20 20 21 22 21 21 21 22 23 24 26 27 29 31 32 33 34 35 36 35 35 38 39 41 41 40 39 38 36
27 27 26 27 27 26 26 25 25 24 24 24 24 23 23 22 22 23 24 24 23 23 24 24 25 27 28 29 31 32 32 33 34 35 35 36 38 40 41 41 40 39 39
29 29 29 29 29 29 29 29 28 27 27 27 27 26 26 25 24 23 24 26 25 24 24 24 25 26 27 28 29 30 31 31 32 33 34 34 35 37 39 40 41 40 40
34 33 32 31 31 32 32 32 31 30 30 30 30 29 29 28 28 26 25 26 27 27 25 24 24 24 26 26 28 29 28 28 29 31 31 31 32 34 37 38 39 39 39
40 39 38 36 36 36 36 35 35 34 34 33 33 32 31 30 30 29 28 26 26 27 26 24 23 24 25 25 26 26 27 27 27 27 28 28 29 31 33 35 37 38 38
48 47 45 43 42 41 40 39 38 38 38 37 36 35 34 33 32 31 30 28 26 26 26 25 23 23 24 24 24 25 25 25 24 24 25 26 26 28 30 32 34 36 37
54 53 53 51 49 47 46 45 43 42 42 41 40 38 36 34 33 32 31 29 27 26 25 25 24 23 23 23 23 24 24 24 24 24 24 25 25 26 27 29 30 32 34
58 58 58 57 56 54 52 51 48 46 45 44 42 41 39 37 35 34 33 31 29 27 25 25 24 23 23 22 23 23 23 24 24 25 25 25 24 25 26 27 28 29 31
62 62 61 60 60 59 58 56 54 52 50 47 45 43 41 40 38 36 34 32 31 28 26 25 24 23 23 22 22 23 24 24 24 25 25 25 25 25 25 26 27 28 29
66 65 64 64 63 63 62 60 58 56 53 51 48 46 44 42 40 38 36 33 32 30 27 25 24 23 23 22 22 22 23 23 24 24 24 25 25 26 25 25 26 27 27
69 69 68 67 66 65 64 63 61 59 56 53 51 49 47 45 42 40 37 34 32 30 28 25 23 22 22 22 22 22 22 23 24 24 25 25 25 25 25 25 25 25 25
63 66 68 69 69 68 66 64 63 61 58 55 53 50 48 46 44 42 38 35 33 31 29 26 24 23 21 21 21 21 22 22 23 24 24 24 23 23 24 24 24 24 24
48 52 57 62 65 67 68 67 65 63 60 57 54 52 49 47 44 42 39 36 33 31 29 27 24 23 21 21 20 20 20 21 22 23 23 23 22 22 22 22 22 22 22
34 36 39 45 51 58 63 66 66 65 62 59 56 53 51 48 45 43 40 37 35 32 30 28 25 24 22 21 20 19 19 19 20 20 21 21 21 20 20 20 20 21 21
30 29 30 31 34 39 46 54 60 63 63 62 59 55 53 49 46 43 41 38 35 33 30 28 26 24 22 21 20 19 19 19 19 20 20 20 19 20 20 20 20 20 19
32 32 31 31 31 32 35 39 46 53 57 60 59 57 54 51 47 44 42 38 35 33 31 28 26 24 22 20 19 19 19 19 19 19 19 19 19 18 18 19 18 18 18
34 33 32 31 31 30 31 32 35 41 47 53 56 56 55 52 49 45 42 38 36 33 31 29 27 24 22 20 19 19 18 18 19 19 19 19 20 19 18 18 18 17 17
36 34 33 31 30 29 29 30 31 34 39 45 50 53 54 52 50 47 42 39 36 33 31 29 26 24 22 21 20 19 18 18 19 19 18 18 18 19 18 17 17 16 15
Wind_Direction
285 283 281 279 278 277 278 279 279 278 276 277 279 278 276 274 272 275 273 269 264 258 254 252 252 250 249 248 246 244 243 244 245 244 242 239 238 239 239 238 239 241 243
281 280 279 278 278 277 276 276 275 273 273 274 275 276 278 277 277 276 277 274 267 262 257 253 250 250 250 248 245 243 242 242 243 243 242 239 238 238 238 236 236 238 240
277 277 278 277 277 276 274 272 270 266 266 269 271 274 276 277 278 276 274 271 272 265 260 257 256 252 249 247 245 243 242 242 242 241 241 239 238 238 237 236 236 237 239
279 278 278 278 277 276 273 271 268 266 267 268 270 273 278 282 283 283 279 274 273 268 265 263 260 253 250 248 245 244 243 241 242 241 240 239 238 237 237 237 236 237 239
278 279 278 278 276 273 272 270 269 268 267 267 270 275 280 286 289 289 289 283 279 273 269 265 262 258 252 249 246 244 242 241 241 240 239 239 238 237 237 236 236 238 239
280 278 277 275 273 271 269 268 267 267 265 265 268 273 278 283 290 292 293 291 286 280 275 270 267 262 253 249 246 244 243 242 242 240 239 238 237 237 238 237 237 238 239
278 276 273 270 269 268 267 266 266 265 263 262 266 270 275 280 287 291 293 293 291 287 281 275 270 264 257 253 248 247 245 244 242 241 240 238 237 237 238 238 239 240 240
278 273 269 266 265 264 264 264 265 265 264 263 265 268 274 279 285 289 293 295 294 290 285 279 272 266 261 256 252 248 246 243 241 242 241 239 236 236 236 238 239 240 241
276 271 268 265 262 261 261 262 263 263 265 265 265 268 272 277 284 288 291 294 296 294 289 283 276 269 263 258 257 252 248 244 242 243 243 241 239 236 236 238 239 240 241
273 270 268 266 263 261 261 261 261 263 265 267 267 268 271 274 278 286 291 293 294 295 293 286 278 271 265 262 257 254 251 246 242 241 242 241 239 237 237 238 239 240 240
271 269 266 265 263 261 261 261 261 262 264 267 269 271 273 275 277 281 287 291 294 295 294 289 281 272 266 262 259 253 250 247 245 243 243 244 241 238 238 238 239 240 241
270 267 265 263 262 262 262 262 263 264 265 267 269 271 274 277 279 281 284 288 292 294 295 291 283 274 268 264 260 252 248 246 245 245 244 244 243 241 239 238 239 240 241
269 266 264 262 262 261 260 261 262 264 265 267 268 270 273 275 278 280 283 286 288 291 294 291 283 274 268 264 260 253 249 249 247 246 246 246 245 242 241 240 240 240 241
268 266 265 263 260 259 259 260 260 261 263 265 267 269 271 273 275 278 281 284 286 287 290 289 284 275 268 264 259 253 250 248 246 245 245 245 245 243 243 241 240 240 241
266 265 264 262 261 259 258 258 259 259 261 263 265 266 268 270 272 275 278 280 283 284 287 286 283 277 270 264 258 251 249 248 246 245 244 244 244 243 241 240 240 239 240
266 264 262 261 260 259 258 257 256 257 258 260 262 264 265 267 270 273 275 277 280 282 284 283 281 277 270 265 257 251 248 246 244 243 243 243 243 242 240 240 240 242 242
265 263 262 260 260 259 258 257 256 255 256 257 259 260 262 264 267 269 272 274 277 279 279 280 279 275 268 264 257 252 247 245 243 243 243 242 242 243 243 243 242 242 243
264 262 261 259 258 258 257 256 256 255 254 254 255 256 258 260 263 265 267 270 273 275 276 277 276 273 267 262 256 251 246 243 243 244 244 243 244 245 245 245 244 243 243
262 260 259 258 257 256 256 255 254 253 252 252 252 253 254 256 258 260 262 265 267 270 272 273 273 269 265 259 254 250 247 245 242 243 244 244 244 243 244 246 246 245 244
261 259 257 256 255 254 254 253 252 252 251 250 249 249 250 251 253 256 257 259 262 265 267 269 268 266 262 259 255 251 248 245 243 243 243 243 244 243 243 244 244 245 244
265 262 259 256 255 254 253 252 251 249 248 247 246 245 246 247 248 250 252 253 256 260 262 264 264 261 259 258 255 250 248 247 245 242 242 241 242 243 243 244 243 244 244
271 268 264 261 258 255 252 250 249 247 246 244 243 241 242 243 244 246 247 248 251 255 258 260 260 257 256 255 254 250 248 247 243 239 239 238 240 241 241 241 241 241 242
273 272 271 268 264 260 255 251 248 245 243 242 240 238 238 239 240 241 242 245 247 250 252 254 255 254 252 252 252 249 247 245 241 239 239 238 239 241 239 238 239 240 239
272 271 271 269 267 263 259 255 249 245 241 238 236 235 234 234 235 236 239 240 241 244 247 249 250 249 249 249 247 245 243 243 242 240 239 240 240 240 237 235 235 236 236
271 270 269 268 266 263 261 258 252 245 239 234 231 230 230 230 230 232 234 235 236 239 242 244 244 245 243 243 244 242 241 241 240 240 240 242 240 235 233 232 232 230 229
268 267 267 266 264 263 260 258 254 245 237 230 225 224 224 225 226 227 228 230 231 234 236 237 239 240 240 241 240 237 235 235 236 237 236 236 232 228 226 223 219 218 218